• In Czech Republic
  • List of Countries
  • For 7 days
  • Water Temperature
  • Satellite Maps
  • Weather Map
  • Weather Widgets
  • user-avatar
    Login

    Hourly Weather Perugia

    Today, 17 January, Wednesday

    Time Temperature Precipitation Wind Pressure Humidity
    00:00 +8°C° 0.1 mm 5 mps 721 mmHg 88%
    01:00 +8°C° 0.1 mm 5 mps 721 mmHg 87%
    02:00 +8°C° 0.1 mm 6 mps 720 mmHg 87%
    03:00 +9°C° 0.1 mm 6 mps 719 mmHg 87%
    04:00 +9°C° 0.1 mm 7 mps 719 mmHg 86%
    05:00 +9°C° 0.3 mm 7 mps 718 mmHg 86%
    06:00 +9°C° 0.3 mm 7 mps 718 mmHg 85%
    07:00 +9°C° 0.3 mm 8 mps 718 mmHg 85%
    08:00 +9°C° 0.2 mm 8 mps 718 mmHg 80%
    09:00 +8°C° 0.2 mm 9 mps 718 mmHg 75%
    10:00 +10°C° 0.2 mm 9 mps 718 mmHg 70%
    11:00 +9°C° 0 mm 10 mps 719 mmHg 59%
    12:00 +9°C° 0 mm 10 mps 719 mmHg 48%
    13:00 +9°C° 0 mm 10 mps 719 mmHg 38%
    14:00 +10°C° 0 mm 8 mps 720 mmHg 40%
    15:00 +9°C° 0 mm 6 mps 721 mmHg 43%
    16:00 +8°C° 0 mm 4 mps 721 mmHg 45%
    17:00 +6°C° 0 mm 4 mps 722 mmHg 45%
    18:00 +5°C° 0 mm 4 mps 724 mmHg 44%
    19:00 +4°C° 0 mm 4 mps 725 mmHg 44%
    20:00 +3°C° 0 mm 3 mps 726 mmHg 45%
    21:00 +3°C° 0 mm 2 mps 727 mmHg 47%
    22:00 +3°C° 0 mm 1 mps 728 mmHg 49%
    23:00 +3°C° 0 mm 1 mps 728 mmHg 48%

    Tomorrow, 18 January, Thursday

    Time Temperature Precipitation Wind Pressure Humidity
    00:00 +3°C° 0 mm 1 mps 728 mmHg 47%
    01:00 +2°C° 0 mm 1 mps 729 mmHg 47%
    02:00 +2°C° 0 mm 1 mps 729 mmHg 45%
    03:00 +2°C° 0 mm 1 mps 729 mmHg 44%
    04:00 +2°C° 0 mm 1 mps 729 mmHg 43%
    05:00 +1°C° 0 mm 2 mps 730 mmHg 42%
    06:00 +1°C° 0 mm 2 mps 730 mmHg 42%
    07:00 +1°C° 0 mm 2 mps 730 mmHg 41%
    08:00 +3°C° 0 mm 2 mps 730 mmHg 39%
    09:00 +3°C° 0 mm 3 mps 731 mmHg 38%
    10:00 +4°C° 0 mm 3 mps 731 mmHg 37%
    11:00 +6°C° 0 mm 4 mps 731 mmHg 37%
    12:00 +7°C° 0 mm 4 mps 730 mmHg 37%
    13:00 +8°C° 0 mm 5 mps 730 mmHg 37%
    14:00 +8°C° 0 mm 5 mps 729 mmHg 44%
    15:00 +7°C° 0 mm 5 mps 729 mmHg 52%
    16:00 +7°C° 0 mm 4 mps 728 mmHg 60%
    17:00 +6°C° 0 mm 4 mps 728 mmHg 69%
    18:00 +6°C° 0 mm 4 mps 728 mmHg 77%
    19:00 +5°C° 0 mm 4 mps 727 mmHg 86%
    20:00 +5°C° 0 mm 4 mps 727 mmHg 87%
    21:00 +5°C° 0 mm 4 mps 727 mmHg 87%
    22:00 +5°C° 0 mm 4 mps 727 mmHg 88%
    23:00 +5°C° 0 mm 4 mps 727 mmHg 88%

    Day after tomorrow, 19 January, Friday

    Time Temperature Precipitation Wind Pressure Humidity
    00:00 +5°C° 0 mm 4 mps 726 mmHg 88%
    01:00 +5°C° 0 mm 4 mps 726 mmHg 88%
    02:00 +5°C° 0 mm 4 mps 725 mmHg 89%
    03:00 +5°C° 0 mm 4 mps 725 mmHg 90%
    04:00 +5°C° 0 mm 4 mps 725 mmHg 91%
    05:00 +5°C° 0 mm 4 mps 725 mmHg 91%
    06:00 +6°C° 0 mm 4 mps 725 mmHg 92%
    07:00 +6°C° 0 mm 4 mps 725 mmHg 93%
    08:00 +7°C° 0 mm 4 mps 725 mmHg 91%
    09:00 +8°C° 0 mm 4 mps 725 mmHg 89%
    10:00 +8°C° 0 mm 4 mps 725 mmHg 88%
    11:00 +9°C° 0.1 mm 5 mps 724 mmHg 85%
    12:00 +9°C° 0.1 mm 6 mps 724 mmHg 83%
    13:00 +10°C° 0.1 mm 6 mps 724 mmHg 81%
    14:00 +10°C° 0.1 mm 6 mps 723 mmHg 80%
    15:00 +10°C° 0.1 mm 6 mps 723 mmHg 80%
    16:00 +10°C° 0.1 mm 6 mps 722 mmHg 79%
    17:00 +9°C° 0.1 mm 5 mps 722 mmHg 83%
    18:00 +8°C° 0.1 mm 5 mps 722 mmHg 86%
    19:00 +7°C° 0.1 mm 5 mps 722 mmHg 89%
    20:00 +7°C° 0.1 mm 5 mps 722 mmHg 87%
    21:00 +7°C° 0.1 mm 5 mps 722 mmHg 84%
    22:00 +6°C° 0.1 mm 5 mps 722 mmHg 82%
    23:00 +6°C° 0 mm 4 mps 722 mmHg 83%

    20 January, Saturday

    Time Temperature Precipitation Wind Pressure Humidity
    00:00 +5°C° 0 mm 3 mps 722 mmHg 84%
    01:00 +5°C° 0 mm 2 mps 722 mmHg 85%
    02:00 +5°C° 0.1 mm 2 mps 722 mmHg 86%
    03:00 +5°C° 0.1 mm 2 mps 722 mmHg 87%
    04:00 +4°C° 0.1 mm 2 mps 722 mmHg 88%
    05:00 +4°C° 0.1 mm 2 mps 722 mmHg 89%
    06:00 +3°C° 0.1 mm 2 mps 722 mmHg 89%
    07:00 +3°C° 0.1 mm 2 mps 722 mmHg 89%
    08:00 +4°C° 0.2 mm 2 mps 723 mmHg 86%
    09:00 +5°C° 0.2 mm 2 mps 723 mmHg 83%
    10:00 +5°C° 0.2 mm 2 mps 723 mmHg 80%
    11:00 +6°C° 0.3 mm 2 mps 723 mmHg 71%
    12:00 +7°C° 0.3 mm 3 mps 724 mmHg 62%
    13:00 +8°C° 0.3 mm 3 mps 724 mmHg 53%
    14:00 +7°C° 0 mm 3 mps 724 mmHg 55%
    15:00 +7°C° 0 mm 2 mps 724 mmHg 56%
    16:00 +7°C° 0 mm 2 mps 724 mmHg 58%
    17:00 +6°C° 0 mm 2 mps 724 mmHg 60%
    18:00 +5°C° 0 mm 1 mps 724 mmHg 63%
    19:00 +4°C° 0 mm 1 mps 724 mmHg 65%
    20:00 +4°C° 0.1 mm 1 mps 724 mmHg 67%
    21:00 +4°C° 0.1 mm 1 mps 724 mmHg 68%
    22:00 +3°C° 0.1 mm 2 mps 724 mmHg 69%
    23:00 +3°C° 1.6 mm 2 mps 723 mmHg 74%

    21 January, Sunday

    Time Temperature Precipitation Wind Pressure Humidity
    00:00 +3°C° 1.6 mm 2 mps 722 mmHg 78%
    01:00 +3°C° 1.6 mm 2 mps 722 mmHg 83%
    02:00 +2°C° 1.7 mm 2 mps 721 mmHg 85%
    03:00 +1°C° 1.7 mm 3 mps 721 mmHg 87%
    04:00 +1°C° 1.7 mm 3 mps 721 mmHg 88%
    05:00 +1°C° 0.2 mm 3 mps 721 mmHg 87%
    06:00 0°C° 0.2 mm 3 mps 722 mmHg 85%
    07:00 -1°C° 0.2 mm 4 mps 723 mmHg 83%
    08:00 0°C° 0 mm 4 mps 724 mmHg 83%
    09:00 0°C° 0 mm 4 mps 725 mmHg 82%
    10:00 +1°C° 0 mm 4 mps 726 mmHg 82%
    11:00 +1°C° 0 mm 5 mps 727 mmHg 79%
    12:00 +2°C° 0 mm 5 mps 728 mmHg 77%
    13:00 +3°C° 0 mm 6 mps 728 mmHg 74%
    14:00 +2°C° 0 mm 5 mps 729 mmHg 75%
    15:00 +3°C° 0 mm 4 mps 729 mmHg 75%
    16:00 +3°C° 0 mm 4 mps 730 mmHg 76%
    17:00 +2°C° 0 mm 3 mps 730 mmHg 78%
    18:00 0°C° 0 mm 3 mps 731 mmHg 80%
    19:00 -1°C° 0 mm 2 mps 731 mmHg 81%
    20:00 -1°C° 0 mm 2 mps 732 mmHg 81%
    21:00 +1°C° 0 mm 1 mps 732 mmHg 80%
    22:00 0°C° 0 mm 1 mps 732 mmHg 79%
    23:00 0°C° 0 mm 1 mps 732 mmHg 78%

    22 January, Monday

    Time Temperature Precipitation Wind Pressure Humidity
    00:00 0°C° 0 mm 1 mps 732 mmHg 77%
    01:00 0°C° 0 mm 1 mps 732 mmHg 76%
    02:00 0°C° 0 mm 1 mps 732 mmHg 75%
    03:00 0°C° 0 mm 1 mps 732 mmHg 75%
    04:00 0°C° 0 mm 1 mps 731 mmHg 74%
    05:00 0°C° 0 mm 1 mps 731 mmHg 73%
    06:00 0°C° 0 mm 1 mps 731 mmHg 73%
    07:00 0°C° 0 mm 1 mps 731 mmHg 72%
    08:00 +1°C° 0 mm 1 mps 731 mmHg 69%
    09:00 +3°C° 0 mm 1 mps 731 mmHg 66%
    10:00 +4°C° 0 mm 1 mps 732 mmHg 62%
    11:00 +5°C° 0 mm 1 mps 731 mmHg 60%
    12:00 +6°C° 0 mm 1 mps 731 mmHg 57%
    13:00 +7°C° 0 mm 1 mps 731 mmHg 54%
    14:00 +7°C° 0 mm 1 mps 731 mmHg 59%
    15:00 +7°C° 0 mm 1 mps 731 mmHg 64%
    16:00 +7°C° 0 mm 1 mps 730 mmHg 68%
    17:00 +5°C° 0 mm 1 mps 731 mmHg 70%
    18:00 +4°C° 0 mm 1 mps 731 mmHg 72%
    19:00 +3°C° 0 mm 1 mps 731 mmHg 74%
    20:00 +3°C° 0 mm 1 mps 731 mmHg 74%
    21:00 +3°C° 0 mm 1 mps 731 mmHg 74%
    22:00 +3°C° 0 mm 1 mps 731 mmHg 74%
    23:00 +3°C° 0 mm 1 mps 731 mmHg 74%
    Show more